Regional Weather Roundup
Issued by NWS

Home | Current Version | Previous Version | Text Only | Print | Product List | Glossary Off
Versions: 1 2 3 4 5 6 7 8 9 10 11 12 13 14 15 16 17 18 19 20 21 22 23 24 25 26 27 28 29 30 31 32 33 34 35 36 37 38 39 40 41 42 43 44 45 46 47 48 49 50

000
ASUS43 KFSD 201010
RWRSD

WEATHER ROUNDUP FOR SOUTH DAKOTA
NATIONAL WEATHER SERVICE SIOUX FALLS SD
500 AM CDT WED SEP 20 2017

NOTE: "FAIR" INDICATES FEW OR NO CLOUDS BELOW 12,000 FEET WITH NO
SIGNIFICANT WEATHER AND/OR OBSTRUCTIONS TO VISIBILITY.


SDZ001>005-009-010-012>017-201100-
NORTHWEST AND NORTH CENTRAL SOUTH DAKOTA

CITY           SKY/WX    TMP DP  RH WIND       PRES   REMARKS
BUFFALO          N/A     40  38  93 SW10      29.65R
FAITH            N/A     41  40  96 SW9       29.73
MOBRIDGE       CLEAR     47  42  83 CALM      29.69R
$$

SDZ012>016-024>037-041>051-057-063-072>074-201100-
SOUTHWEST AND SOUTH CENTRAL SOUTH DAKOTA

CITY           SKY/WX    TMP DP  RH WIND       PRES   REMARKS
RAPID CTY ARPT NOT AVBL
PIERRE         CLOUDY    46  42  86 W3        29.76R
CUSTER         CLEAR     33  29  85 SW6       29.81S WCI  28
ELLSWORTH AFB  CLEAR     40  34  77 W9        29.76R
PHILIP         CLEAR     40  39  97 W7        29.78R
SPEARFISH      FAIR      45  32  61 SW9G16    29.76S
WINNER         FAIR      53  48  83 W6        29.81R
$$

SDZ004>011-016>023-039-040-201100-
NORTHEAST SOUTH DAKOTA

CITY           SKY/WX    TMP DP  RH WIND       PRES   REMARKS
ABERDEEN       CLOUDY    53  48  83 W10       29.68R
WATERTOWN      MOCLDY    55  53  93 W14       29.67R
BROOKINGS      CLOUDY    56  54  93 W13       29.71R
SISSETON         N/A     59  54  83 W12       29.62R
$$

SDZ017-020-022-023-036>040-048>070-201100-
SOUTHEAST SOUTH DAKOTA

CITY           SKY/WX    TMP DP  RH WIND       PRES   REMARKS
SIOUX FALLS    PTCLDY    60  58  92 W6        29.71R
HURON          PTCLDY    53  50  89 W10       29.74R
CHAMBERLAIN    CLOUDY    53  52  97 SW3       29.78R
MITCHELL       MOCLDY    55  52  89 W9        29.75R
YANKTON        PTCLDY    59  55  87 W7        29.74R
$$

ABBREVIATIONS USED IN REMARKS
   TC - TEMPERATURE IN CELSIUS
  WCI - WIND CHILL INDEX
   HX - HEAT INDEX
  VSB - VISIBILITY




USA.gov is the U.S. government's official web portal to all federal, state and local government web resources and services.